Satellite: IO-26
Catalog number: 22826
Epoch time:      09099.82189296
Element set:     939
Inclination:      098.4232 deg
RA of node:       056.1992 deg
Eccentricity:    0.0009934
Arg of perigee:   100.8265 deg
Mean anomaly:     259.4035 deg
Mean motion:   14.29513832 rev/day
Decay rate:       -1.0e-07 rev/day^2
Epoch rev:           81024
Checksum:              322

Satellite: GO-32
Catalog number: 25397
Epoch time:      09098.53957391
Element set:    0864
Inclination:      098.3310 deg
RA of node:       124.5937 deg
Eccentricity:    0.0002122
Arg of perigee:   086.2116 deg
Mean anomaly:     273.9328 deg
Mean motion:   14.23156970 rev/day
Decay rate:       -1.8e-07 rev/day^2
Epoch rev:           55822
Checksum:              318

Satellite: NO-44
Catalog number: 26931
Epoch time:      09098.88145629
Element set:    0143
Inclination:      067.0500 deg
RA of node:       242.8915 deg
Eccentricity:    0.0005309
Arg of perigee:   266.6206 deg
Mean anomaly:     093.4283 deg
Mean motion:   14.29552986 rev/day
Decay rate:        5.0e-08 rev/day^2
Epoch rev:           39267
Checksum:              324

Satellite: SO-50
Catalog number: 27607
Epoch time:      09098.52431942
Element set:    0857
Inclination:      064.5566 deg
RA of node:       236.6638 deg
Eccentricity:    0.0074624
Arg of perigee:   221.0823 deg
Mean anomaly:     138.4612 deg
Mean motion:   14.71425603 rev/day
Decay rate:       -5.6e-07 rev/day^2
Epoch rev:           33842
Checksum:              311

Satellite: CO-55
Catalog number: 27844
Epoch time:      09098.54750732
Element set:    0553
Inclination:      098.7147 deg
RA of node:       108.6938 deg
Eccentricity:    0.0009941
Arg of perigee:   350.1103 deg
Mean anomaly:     009.9885 deg
Mean motion:   14.20630807 rev/day
Decay rate:        6.2e-07 rev/day^2
Epoch rev:           29937
Checksum:              333

Satellite: CO-57
Catalog number: 27848
Epoch time:      09098.58579776
Element set:    0499
Inclination:      098.7171 deg
RA of node:       107.7939 deg
Eccentricity:    0.0009952
Arg of perigee:   353.7676 deg
Mean anomaly:     006.3375 deg
Mean motion:   14.20433383 rev/day
Decay rate:        6.0e-08 rev/day^2
Epoch rev:           29934
Checksum:              374

Satellite: AO-51
Catalog number: 28375
Epoch time:      09098.57963634
Element set:    0360
Inclination:      098.0555 deg
RA of node:       112.2356 deg
Eccentricity:    0.0084550
Arg of perigee:   337.2204 deg
Mean anomaly:     022.5245 deg
Mean motion:   14.40637772 rev/day
Decay rate:        3.0e-08 rev/day^2
Epoch rev:           25093
Checksum:              299

Satellite: CO-56
Catalog number: 28941
Epoch time:      09099.72738336
Element set:     976
Inclination:      098.1336 deg
RA of node:       261.7480 deg
Eccentricity:    0.0102956
Arg of perigee:   030.1651 deg
Mean anomaly:     330.5504 deg
Mean motion:   15.77490548 rev/day
Decay rate:     4.2493e-04 rev/day^2
Epoch rev:           17643
Checksum:              341

Satellite: CP3
Catalog number: 31128
Epoch time:      09099.65553390
Element set:     600
Inclination:      097.9944 deg
RA of node:       155.8990 deg
Eccentricity:    0.0103548
Arg of perigee:   137.2134 deg
Mean anomaly:     223.7175 deg
Mean motion:   14.52031167 rev/day
Decay rate:       -4.6e-07 rev/day^2
Epoch rev:           10495
Checksum:              305

Satellite: CP4
Catalog number: 31132
Epoch time:      09098.63033453
Element set:    0583
Inclination:      098.0024 deg
RA of node:       158.5785 deg
Eccentricity:    0.0086845
Arg of perigee:   129.6925 deg
Mean anomaly:     231.1962 deg
Mean motion:   14.55195749 rev/day
Decay rate:        8.5e-07 rev/day^2
Epoch rev:           10491
Checksum:              322

Satellite: CO-65
Catalog number: 32785
Epoch time:      09098.42242072
Element set:    0341
Inclination:      097.9532 deg
RA of node:       162.9470 deg
Eccentricity:    0.0013793
Arg of perigee:   258.1843 deg
Mean anomaly:     101.7806 deg
Mean motion:   14.81466188 rev/day
Decay rate:       2.57e-06 rev/day^2
Epoch rev:           05111
Checksum:              313

Satellite: SOHLA-1
Catalog number: 33496
Epoch time:      09099.81563307
Element set:     233
Inclination:      098.0314 deg
RA of node:       210.2158 deg
Eccentricity:    0.0007527
Arg of perigee:   133.9412 deg
Mean anomaly:     226.2411 deg
Mean motion:   14.69428768 rev/day
Decay rate:        8.3e-07 rev/day^2
Epoch rev:            1123
Checksum:              284

/EX
SB KEPS @ AMSAT  $ORB09099.W
Orbital Elements  09099.WEATHER

HR AMSAT ORBITAL ELEMENTS FOR WEATHER SATELLITES
FROM WA5QGD FORT WORTH,TX April 9, 2009
Send Subscribe/unsubscribe to KEPS at 
http://www.amsat.org/mailman/listinfo/keps
BID: ORB09099.W
TO ALL RADIO AMATEURS BT

Satellite: NOAA-10
Catalog number: 16969
Epoch time:      09098.69014003
Element set:    0566
Inclination:      098.6975 deg
RA of node:       125.6974 deg
Eccentricity:    0.0012905
Arg of perigee:   043.1852 deg
Mean anomaly:     317.0345 deg
Mean motion:   14.27383197 rev/day
Decay rate:       -5.5e-07 rev/day^2
Epoch rev:           17359
Checksum:              331

